Gallup, NM

9:27 PM MDT on March 27, 2017 (GMT -0600)
Gallup Municipal

Weather History for KGUP - December, 2012

Change the Weather History Date:

Sunday, December 2, 2012

  Actual Average Record
Temperature  
Mean Temperature 36 °F -  
Max Temperature 57 °F 45 °F 62 °F (1998)
Min Temperature 16 °F 15 °F -7 °F (1991)
Degree Days  
Heating Degree Days 28    
Moisture  
Dew Point 17 °F    
Average Humidity 47    
Maximum Humidity 77    
Minimum Humidity 20    
Precipitation  
Precipitation 0.00 in - - ()
Sea Level Pressure  
Sea Level Pressure 30.13 in    
Wind  
Wind Speed 5 mph (SW)    
Max Wind Speed 25 mph    
Max Gust Speed 31 mph    
Visibility 10 miles    
Events      
Averages and records for this station are not official NWS values.
T = Trace of Precipitation, MM = Missing Value Source: NWS Daily Summary

Daily Weather History Graph

Daily Weather History Graph

Search for Another Location

Airport or City:

Trip Planner

Search our weather history database for the weather conditions in past years. The results will help you decide how hot, cold, wet, or windy it might be!

Date:

Astronomy

Dec. 02, 2012 Rise Set
Actual Time 7:07 AM MST 5:02 PM MST
Civil Twilight 6:39 AM MST 5:30 PM MST
Nautical Twilight 6:07 AM MST 6:01 PM MST
Astronomical Twilight 5:37 AM MST 6:32 PM MST
Moon 8:49 PM MST (12/2) 10:01 AM MST (12/2)
Length of Visible Light 10h 50m
Length of Day
9h 54m
Waning Gibbous, 85% of the Moon is Illuminated
Dec 2
Waning Gibbous
Dec 6
Last Quarter
Dec 13
New
Dec 19
First Quarter
Dec 28
Full

Hourly Weather History & Observations

Time (MST) Temp. Windchill Dew Point Humidity Pressure Visibility Wind Dir Wind Speed Gust Speed Precip Events Conditions
12:53 AM 21.9 °F - 12.9 °F 68% 30.14 in 10.0 mi Calm Calm - N/A   Clear
1:53 AM 21.0 °F 16.2 °F 12.0 °F 68% 30.14 in 10.0 mi ENE 3.5 mph - N/A   Clear
2:53 AM 25.0 °F - 16.0 °F 69% 30.12 in 10.0 mi Calm Calm - N/A   Clear
3:53 AM 19.0 °F - 12.0 °F 74% 30.17 in 10.0 mi Calm Calm - N/A   Clear
4:53 AM 16.0 °F - 10.0 °F 77% 30.24 in 10.0 mi Calm Calm - N/A   Clear
5:53 AM 17.1 °F - 10.9 °F 77% 30.27 in 10.0 mi Calm Calm - N/A   Clear
6:53 AM 19.0 °F - 12.9 °F 77% 30.30 in 10.0 mi Calm Calm - N/A   Clear
7:53 AM 19.0 °F - 12.9 °F 77% 30.32 in 10.0 mi Calm Calm - N/A   Clear
8:53 AM 32.0 °F - 18.0 °F 56% 30.27 in 10.0 mi Calm Calm - N/A   Clear
9:53 AM 39.0 °F 36.8 °F 19.9 °F 46% 30.25 in 10.0 mi West 3.5 mph - N/A   Clear
10:53 AM 51.1 °F - 19.0 °F 28% 30.12 in 10.0 mi SW 9.2 mph - N/A   Clear
11:53 AM 55.9 °F - 21.0 °F 26% 30.11 in 10.0 mi WSW 12.7 mph - N/A   Clear
12:53 PM 57.9 °F - 19.0 °F 22% 30.06 in 10.0 mi SW 18.4 mph 26.5 mph N/A   Clear
1:53 PM 57.9 °F - 17.1 °F 20% 30.05 in 10.0 mi SW 25.3 mph 31.1 mph N/A   Clear
2:53 PM 57.9 °F - 19.0 °F 22% 30.01 in 10.0 mi SW 18.4 mph 27.6 mph N/A   Clear
3:53 PM 57.0 °F - 17.1 °F 21% 30.06 in 10.0 mi WSW 17.3 mph 24.2 mph N/A   Clear
4:53 PM 52.0 °F - 16.0 °F 24% 30.12 in 10.0 mi SW 8.1 mph - N/A   Clear
5:53 PM 44.1 °F - 16.0 °F 32% 30.17 in 9.0 mi Calm Calm - N/A   Clear
6:53 PM 44.1 °F 42.5 °F 17.1 °F 34% 30.16 in 10.0 mi South 3.5 mph - N/A   Clear
7:53 PM 46.0 °F 41.0 °F 19.0 °F 34% 30.15 in 10.0 mi SW 10.4 mph - N/A   Clear
8:53 PM 48.0 °F - 21.9 °F 36% 30.05 in 10.0 mi SW 13.8 mph - N/A   Clear
9:53 PM 46.0 °F 40.6 °F 23.0 °F 40% 30.01 in 10.0 mi SW 11.5 mph - N/A   Clear
10:53 PM 44.1 °F 40.1 °F 24.1 °F 45% 29.94 in 10.0 mi WSW 6.9 mph - N/A   Clear
11:53 PM 41.0 °F 37.1 °F 23.0 °F 49% 29.94 in 10.0 mi West 5.8 mph - N/A   Clear